TimeIST,TemperatureF,Dew PointF,Humidity,Sea Level PressureIn,VisibilityMPH,Wind Direction,Wind SpeedMPH,Gust SpeedMPH,PrecipitationIn,Events,Conditions,WindDirDegrees,DateUTC
12:00 AM,59.0,46.4,63,29.98,1.2,Calm,Calm,-,N/A,,Smoke,0,2013-02-18 18:30:00
2:00 AM,66.2,46.4,49,29.98,1.2,Calm,Calm,-,N/A,,Smoke,0,2013-02-18 20:30:00
5:00 AM,55.4,44.6,67,29.95,1.2,Calm,Calm,-,N/A,,Smoke,0,2013-02-18 23:30:00
5:30 AM,54,45,62,29.98,1,Calm,Calm,,,,Smoke,,2013-02-19 00:00:00
7:00 AM,53.6,44.6,72,29.98,1.2,Calm,Calm,-,N/A,,Smoke,0,2013-02-19 01:30:00
8:00 AM,53.6,44.6,72,30.01,1.2,Calm,Calm,-,N/A,,Smoke,0,2013-02-19 02:30:00
8:30 AM,57,53,83,30.04,1,Calm,Calm,,,,Mist,,2013-02-19 03:00:00
9:00 AM,60.8,53.6,77,30.04,1.6,Variable,2.3,-,N/A,,Scattered Clouds,0,2013-02-19 03:30:00
9:30 AM,62.6,50.0,63,30.06,1.6,East,4.6,-,N/A,,Haze,90,2013-02-19 04:00:00
10:00 AM,64.4,50.0,59,30.06,1.6,Variable,2.3,-,N/A,,Haze,0,2013-02-19 04:30:00
10:30 AM,66.2,46.4,49,30.06,1.6,ESE,5.8,-,N/A,,Haze,110,2013-02-19 05:00:00
11:00 AM,66.2,44.6,46,30.06,1.6,SE,3.5,-,N/A,,Haze,130,2013-02-19 05:30:00
11:30 AM,67,49,41,30.02,1,SSE,6.9,,,,Haze,160,2013-02-19 06:00:00
11:30 AM,66.2,48.2,52,30.04,1.6,SSE,4.6,-,N/A,,Haze,160,2013-02-19 06:00:00
12:00 PM,68.0,48.2,49,30.04,1.6,SSE,5.8,-,N/A,,Haze,150,2013-02-19 06:30:00
1:00 PM,68.0,46.4,46,30.04,1.6,South,4.6,-,N/A,,Haze,180,2013-02-19 07:30:00
2:30 PM,74,48,29,29.92,2,West,6.9,,,,Haze,270,2013-02-19 09:00:00
3:00 PM,71.6,44.6,38,29.98,2.5,West,6.9,-,N/A,,Haze,270,2013-02-19 09:30:00
4:00 PM,71.6,46.4,41,29.95,2.5,WSW,6.9,-,N/A,,Haze,240,2013-02-19 10:30:00
5:00 PM,71.6,48.2,43,29.95,2.5,SSW,4.6,-,N/A,,Haze,210,2013-02-19 11:30:00
8:00 PM,66.2,50.0,56,30.01,1.9,NE,5.8,-,N/A,,Haze,50,2013-02-19 14:30:00
8:30 PM,66,49,44,29.98,1,East,4.6,,,,Haze,90,2013-02-19 15:00:00
9:00 PM,68.0,57.2,68,30.04,1.6,ENE,5.8,-,N/A,,Scattered Clouds,60,2013-02-19 15:30:00
10:00 PM,71.6,59.0,64,30.04,1.2,Variable,2.3,-,N/A,,Smoke,0,2013-02-19 16:30:00
11:00 PM,64.4,55.4,73,30.04,1.2,NE,2.3,-,N/A,,Smoke,50,2013-02-19 17:30:00
11:30 PM,62,52,62,30.03,1,Calm,Calm,,,,Smoke,,2013-02-19 18:00:00